[[{"header":{"parameterUnit":"m.s-1","parameterCategory":1,"la1":30.2991,"la2":30.254,"lo1":-89.0895,"lo2":-89.0444,"dy":0.0017,"dx":0.0017,"nx":28,"ny":28,"refTime":"2025-01-03T09:00:00:Z","depth":0,"parameterNumber":2,"parameterNumberName":"U-component_of_WINDS"},"data":[0,0,0,0,0,0,0,0,0,0,0,0,0,0,0,0,0,0,0,0,0,0,0,0,0,0,0,0,0,0,0,0,0,0,0,0,0,0,0,0,0,0,0,0,0,0,0,0,0,0,0,0,0,0,0,0,0,0,-1.4811,-1.4812,0,-1.4903,-1.4904,-1.4905,-1.486,-1.4858,-1.4855,-1.4853,-1.4953,-1.4958,-1.4963,0,0,0,0,0,0,0,0,0,0,0,0,0,-1.4602,-1.4606,-1.4811,-1.4812,-1.4813,-1.4903,-1.4904,-1.4905,-1.486,-1.4857,-1.4855,-1.4852,-1.4952,-1.4957,-1.4963,0,0,0,0,0,0,0,0,0,0,0,0,0,-1.4693,-1.4607,-1.4811,-1.4801,-1.4801,-1.4902,-1.4904,-1.4905,-1.4861,-1.4857,-1.4854,-1.485,-1.495,-1.4957,-1.4964,-1.5081,0,0,-1.4987,-1.499,0,0,0,0,0,0,0,0,-1.4688,-1.4701,-1.4802,-1.4802,-1.4802,-1.4866,-1.4867,-1.4965,-1.4862,-1.4839,-1.4853,-1.4849,-1.4928,-1.4936,-1.4962,-1.5086,-1.509,-1.4987,-1.4992,-1.4995,-1.4997,0,0,0,0,0,0,0,-1.4682,-1.4697,-1.4847,-1.4803,-1.4804,-1.4794,-1.4803,-1.4885,-1.4902,-1.484,-1.4837,-1.4848,-1.4927,-1.4955,-1.4964,-1.5092,-1.4987,-1.4994,-1.4998,-1.5001,-1.5317,-1.5321,0,0,0,0,0,0,-1.4675,-1.4692,-1.4844,-1.485,-1.4735,-1.4801,-1.4811,-1.4849,-1.4901,-1.4906,-1.4851,-1.4846,-1.4944,-1.4955,-1.4967,-1.5108,-1.4995,-1.5002,-1.5006,-1.5313,-1.5318,-1.5322,0,0,0,0,0,0,-1.4671,-1.4689,-1.4841,-1.477,-1.4789,-1.4808,-1.4852,-1.4853,-1.4881,-1.4909,-1.4913,-1.4876,-1.4942,-1.4957,-1.5053,-1.5111,-1.5005,-1.5012,-1.5308,-1.5314,-1.532,-1.5391,0,0,0,0,0,0,-1.4665,-1.4688,-1.4731,-1.4771,-1.4792,-1.4924,-1.4855,-1.4857,-1.4893,-1.4887,-1.4934,-1.4938,-1.494,-1.5042,-1.506,-1.5119,-1.5017,-1.5303,-1.5311,-1.5318,-1.5383,-1.5398,-1.5411,0,0,0,0,0,-1.4657,-1.4749,-1.4734,-1.4752,-1.4847,-1.4927,-1.4939,-1.4938,-1.4898,-1.4942,-1.4961,-1.4937,-1.5101,-1.5052,-1.5072,-1.5134,-1.53,-1.5309,-1.5317,-1.5377,-1.5395,-1.5411,0,0,0,0,0,0,-1.4718,-1.4754,-1.4738,-1.4844,-1.4883,-1.4919,-1.4976,-1.4957,-1.5009,-1.5002,-1.4999,-1.5011,-1.511,-1.5132,-1.5076,-1.525,-1.5194,-1.5208,-1.5233,-1.5251,-1.5264,-1.5258,-1.5024,0,0,0,0,0,-1.4743,-1.4803,-1.4832,-1.4923,-1.4943,-1.4956,-1.4991,-1.4986,-1.5027,-1.5043,-1.5069,-1.5111,-1.5171,-1.5212,-1.527,-1.5386,-1.5396,-1.5438,-1.5452,-1.5463,-1.5475,-1.5539,-1.5558,-1.5351,-1.5351,-1.5351,0,0,-1.4797,-1.4824,-1.4862,-1.4936,-1.4965,-1.5029,-1.497,-1.504,-1.5088,-1.5055,-1.5146,-1.5166,-1.5213,-1.5319,-1.5367,-1.534,-1.5534,-1.5475,-1.5484,-1.549,-1.555,-1.5569,-1.5587,-1.5358,-1.5356,-1.5356,0,0,-1.4927,-1.4953,-1.5032,-1.5062,-1.5106,-1.5113,-1.5132,-1.5172,-1.5183,-1.5274,-1.5251,-1.5308,-1.5413,-1.5447,-1.5478,-1.5621,-1.5601,-1.564,-1.5713,-1.5775,-1.5791,-1.5805,-1.5857,-1.5875,-1.5651,-1.5651,-1.5652,0,-1.4989,-1.5082,-1.5076,-1.5147,-1.5181,-1.5151,-1.5232,-1.5261,-1.5323,-1.5348,-1.5316,-1.5447,-1.5476,-1.559,-1.5624,-1.565,-1.5673,-1.5635,-1.5789,-1.5803,-1.5817,-1.5866,-1.5885,-1.5656,-1.5655,-1.5655,-1.5654,0,-1.5156,-1.5222,-1.528,-1.5338,-1.5378,-1.5454,-1.5461,-1.5503,-1.5494,-1.5506,-1.56,-1.5633,-1.5697,-1.5723,-1.5717,-1.5837,-1.5819,-1.5788,-1.5732,-1.5841,-1.5887,-1.5906,-1.5662,-1.5661,-1.5659,-1.5658,0,0,-1.5329,-1.5381,-1.5403,-1.5428,-1.5474,-1.5525,-1.56,-1.566,-1.5697,-1.574,-1.5804,-1.5892,-1.5864,-1.5899,-1.5896,-1.595,-1.6061,-1.5912,-1.5914,-1.594,-1.6196,-1.6219,-1.6241,-1.6047,-1.6051,-1.6053,-1.6192,0,-1.5464,-1.5592,-1.5588,-1.5709,-1.577,-1.5742,-1.5807,-1.5843,-1.5856,-1.591,-1.5925,-1.5988,-1.5945,-1.5966,-1.6018,-1.6036,-1.6113,-1.6026,-1.6108,-1.6111,-1.6098,-1.6265,-1.6291,-1.642,-1.621,-1.6213,-1.6215,0,-1.5638,-1.5685,-1.5811,-1.5847,-1.5872,-1.5931,-1.5986,-1.6037,-1.6078,-1.6083,-1.6122,-1.611,-1.6187,-1.6128,-1.6235,-1.6176,-1.621,-1.6224,-1.6229,-1.6237,-1.6171,-1.6279,-1.6461,-1.6481,-1.6244,-1.6241,-1.6239,0,-1.5752,-1.5847,-1.5935,-1.5957,-1.6001,-1.6043,-1.6064,-1.6101,-1.6137,-1.6185,-1.6209,-1.6267,-1.6299,-1.6344,-1.6348,-1.6304,-1.6457,-1.6398,-1.6465,-1.6465,-1.65,-1.6498,-1.669,-1.6519,-1.6519,-1.6519,-1.6518,0,-1.5904,-1.5983,-1.5986,-1.6041,-1.6128,-1.6123,-1.621,-1.6227,-1.626,-1.6318,-1.6297,-1.6353,-1.6354,-1.6411,-1.6415,-1.6504,-1.6518,-1.6526,-1.6526,-1.6528,-1.6528,-1.6551,-1.6543,-1.6524,-1.6523,-1.6522,-1.6521,0,-1.6047,-1.6053,-1.6147,-1.618,-1.619,-1.6253,-1.6282,-1.6334,-1.6344,-1.6418,-1.6435,-1.6451,-1.6517,-1.6525,-1.6603,-1.6605,-1.6712,-1.6703,-1.6698,-1.6697,-1.6764,-1.6758,-1.6979,-1.7008,-1.6818,-1.682,-1.6821,0,-1.6144,-1.6204,-1.6242,-1.6278,-1.6301,-1.636,-1.6396,-1.6393,-1.6432,-1.6482,-1.6529,-1.6592,-1.6642,-1.6749,-1.6769,-1.6828,-1.682,-1.6894,-1.6829,-1.6829,-1.6822,-1.6819,-1.6825,-1.6907,-1.6909,-1.6911,-1.6912,0,-1.6316,-1.6315,-1.6367,-1.642,-1.6463,-1.6506,-1.6545,-1.6577,-1.6579,-1.6624,-1.6689,-1.6728,-1.6806,-1.687,-1.6928,-1.6951,-1.6933,-1.6932,-1.6951,-1.6954,-1.6949,-1.6953,-1.6733,-1.6927,-1.6926,-1.6925,-1.6924,-1.6923,-1.6439,-1.6491,-1.6525,-1.6584,-1.6613,-1.665,-1.6701,-1.6716,-1.677,-1.6831,-1.6827,-1.69,-1.6938,-1.7014,-1.7041,-1.7099,-1.7075,-1.7102,-1.7109,-1.7116,-1.7123,-1.6939,-1.7109,-1.7109,-1.7108,-1.7108,-1.7108,0,-1.661,-1.6631,-1.6685,-1.6739,-1.6786,-1.6761,-1.6804,-1.6845,-1.6908,-1.6945,-1.6994,-1.707,-1.7131,-1.7155,-1.7215,-1.7257,-1.725,-1.7273,-1.727,-1.7276,-1.7141,-1.7119,-1.7277,-1.7277,-1.7277,-1.7277,-1.7277,-1.7277,-1.6705,-1.6791,-1.6794,-1.6894,-1.6914,-1.6984,-1.701,-1.7045,-1.7073,-1.7158,-1.7208,-1.7222,-1.7254,-1.7316,-1.7371,-1.7376,-1.74,-1.7427,-1.7429,-1.7303,-1.7286,-1.7269,-1.7249,-1.7432,-1.7432,-1.7559,-1.756,-1.7561]},{"header":{"parameterUnit":"m.s-1","parameterCategory":1,"la1":30.2991,"la2":30.254,"lo1":-89.0895,"lo2":-89.0444,"dy":0.0017,"dx":0.0017,"nx":28,"ny":28,"refTime":"2025-01-03T09:00:00:Z","depth":0,"parameterNumber":3,"parameterNumberName":"V-component_of_WINDS"},"data":[0,0,0,0,0,0,0,0,0,0,0,0,0,0,0,0,0,0,0,0,0,0,0,0,0,0,0,0,0,0,0,0,0,0,0,0,0,0,0,0,0,0,0,0,0,0,0,0,0,0,0,0,0,0,0,0,0,0,-2.7252,-2.7252,0,-2.723,-2.7229,-2.7229,-2.7177,-2.7176,-2.7175,-2.7174,-2.7152,-2.7152,-2.7152,0,0,0,0,0,0,0,0,0,0,0,0,0,-2.7251,-2.7251,-2.7252,-2.7252,-2.7252,-2.723,-2.7229,-2.7229,-2.7177,-2.7176,-2.7175,-2.7174,-2.7152,-2.7152,-2.7153,0,0,0,0,0,0,0,0,0,0,0,0,0,-2.7242,-2.7251,-2.7252,-2.7223,-2.722,-2.723,-2.7229,-2.7229,-2.7178,-2.7176,-2.7174,-2.7173,-2.7151,-2.7152,-2.7153,-2.7189,0,0,-2.7154,-2.7155,0,0,0,0,0,0,0,0,-2.7243,-2.7242,-2.7228,-2.7225,-2.7222,-2.7205,-2.7221,-2.7216,-2.7178,-2.7194,-2.7174,-2.7172,-2.7171,-2.717,-2.7169,-2.7188,-2.7187,-2.7155,-2.7155,-2.7155,-2.7155,0,0,0,0,0,0,0,-2.7243,-2.7243,-2.7243,-2.7228,-2.7224,-2.7211,-2.7208,-2.7219,-2.7192,-2.7192,-2.7189,-2.7187,-2.7169,-2.7168,-2.7168,-2.7186,-2.7155,-2.7155,-2.7155,-2.7156,-2.7233,-2.7234,0,0,0,0,0,0,-2.7248,-2.7244,-2.7244,-2.7243,-2.7229,-2.7213,-2.7209,-2.7212,-2.7191,-2.7187,-2.7188,-2.7184,-2.7168,-2.7167,-2.7167,-2.7207,-2.7155,-2.7156,-2.7156,-2.7231,-2.7233,-2.7235,0,0,0,0,0,0,-2.7248,-2.7249,-2.7245,-2.7242,-2.7241,-2.7214,-2.7218,-2.7212,-2.7212,-2.7188,-2.7183,-2.7193,-2.7167,-2.7166,-2.7183,-2.7205,-2.7156,-2.7157,-2.7229,-2.7232,-2.7234,-2.7287,0,0,0,0,0,0,-2.7249,-2.7249,-2.7262,-2.7243,-2.7241,-2.7262,-2.7219,-2.7213,-2.7213,-2.7208,-2.7191,-2.7187,-2.7166,-2.7183,-2.7184,-2.7205,-2.7157,-2.7227,-2.723,-2.7233,-2.7284,-2.7292,-2.7298,0,0,0,0,0,-2.7249,-2.7279,-2.7263,-2.7264,-2.7257,-2.7263,-2.7262,-2.7237,-2.7215,-2.7228,-2.7213,-2.7187,-2.7203,-2.7185,-2.7186,-2.7208,-2.7225,-2.7229,-2.7233,-2.728,-2.729,-2.7298,0,0,0,0,0,0,-2.7302,-2.7276,-2.7258,-2.7283,-2.7276,-2.7254,-2.727,-2.7248,-2.7247,-2.7242,-2.7211,-2.7208,-2.7229,-2.722,-2.7201,-2.7241,-2.721,-2.7214,-2.7246,-2.7255,-2.7262,-2.7263,-2.7158,0,0,0,0,0,-2.7316,-2.7323,-2.73,-2.7324,-2.7321,-2.7297,-2.7298,-2.7279,-2.7271,-2.7267,-2.7253,-2.7246,-2.7249,-2.7252,-2.7253,-2.7283,-2.7278,-2.7298,-2.7305,-2.7312,-2.7315,-2.7329,-2.7337,-2.7247,-2.7247,-2.7247,0,0,-2.7347,-2.7333,-2.7339,-2.7335,-2.7327,-2.7334,-2.7294,-2.7304,-2.7309,-2.7269,-2.7284,-2.7273,-2.7263,-2.7286,-2.7296,-2.7279,-2.7339,-2.7316,-2.7321,-2.7321,-2.7333,-2.7342,-2.735,-2.725,-2.7249,-2.7249,0,0,-2.7405,-2.7396,-2.7414,-2.7407,-2.7396,-2.7379,-2.7384,-2.7366,-2.7357,-2.7372,-2.7341,-2.7347,-2.7353,-2.7347,-2.7345,-2.7401,-2.7377,-2.7402,-2.744,-2.7454,-2.7461,-2.7467,-2.7486,-2.7493,-2.7406,-2.7406,-2.7406,0,-2.7444,-2.7454,-2.7427,-2.7438,-2.7437,-2.7401,-2.7419,-2.7413,-2.7403,-2.7403,-2.7385,-2.7391,-2.7382,-2.7403,-2.7416,-2.7416,-2.742,-2.7403,-2.7462,-2.7468,-2.7473,-2.7491,-2.7498,-2.7409,-2.7409,-2.7409,-2.7408,0,-2.7502,-2.7509,-2.7526,-2.7516,-2.7516,-2.7531,-2.7507,-2.751,-2.7492,-2.7477,-2.7492,-2.748,-2.7478,-2.7482,-2.7464,-2.7499,-2.749,-2.7468,-2.7435,-2.7485,-2.7501,-2.7508,-2.7414,-2.7413,-2.7412,-2.7411,0,0,-2.7592,-2.7567,-2.7573,-2.7568,-2.7553,-2.7558,-2.7572,-2.7569,-2.7573,-2.7567,-2.7577,-2.7583,-2.7563,-2.756,-2.7541,-2.7554,-2.7597,-2.753,-2.7529,-2.7541,-2.7634,-2.765,-2.7658,-2.7582,-2.7583,-2.7584,-2.7635,0,-2.7645,-2.7666,-2.7642,-2.7668,-2.7674,-2.764,-2.7651,-2.7643,-2.763,-2.7633,-2.7619,-2.7623,-2.7596,-2.7594,-2.7605,-2.759,-2.7615,-2.7586,-2.759,-2.7591,-2.7592,-2.7667,-2.7683,-2.7731,-2.7641,-2.7642,-2.7643,0,-2.771,-2.7707,-2.7733,-2.7716,-2.7717,-2.7728,-2.7724,-2.7728,-2.7718,-2.7707,-2.7704,-2.7682,-2.7693,-2.7663,-2.7679,-2.7659,-2.766,-2.7653,-2.7654,-2.7652,-2.7618,-2.7665,-2.7746,-2.7753,-2.7652,-2.7652,-2.7651,0,-2.7771,-2.7774,-2.779,-2.7787,-2.7767,-2.7775,-2.7767,-2.7756,-2.7756,-2.7752,-2.7752,-2.775,-2.7749,-2.7748,-2.7726,-2.7706,-2.7743,-2.7712,-2.7734,-2.7735,-2.7742,-2.7742,-2.7823,-2.7746,-2.7745,-2.7745,-2.7745,0,-2.7833,-2.785,-2.7817,-2.7826,-2.7844,-2.7817,-2.7836,-2.7824,-2.7815,-2.7821,-2.7792,-2.7799,-2.777,-2.7774,-2.7756,-2.7771,-2.7771,-2.7762,-2.7757,-2.7764,-2.7765,-2.7763,-2.7758,-2.7747,-2.7747,-2.7746,-2.7746,0,-2.7903,-2.7882,-2.7897,-2.7877,-2.7872,-2.7886,-2.7869,-2.7877,-2.7862,-2.7871,-2.7872,-2.7848,-2.7851,-2.7829,-2.7828,-2.7816,-2.7838,-2.7828,-2.7842,-2.7838,-2.7861,-2.7858,-2.7942,-2.7951,-2.787,-2.7871,-2.7871,0,-2.7943,-2.7955,-2.7936,-2.7939,-2.7932,-2.7936,-2.7936,-2.791,-2.7911,-2.7901,-2.791,-2.791,-2.7909,-2.7915,-2.7898,-2.7897,-2.7885,-2.7915,-2.7885,-2.7891,-2.7884,-2.7883,-2.7883,-2.7921,-2.7922,-2.7922,-2.7923,0,-2.8015,-2.8004,-2.8004,-2.8001,-2.8002,-2.7998,-2.7993,-2.7996,-2.7968,-2.797,-2.7973,-2.7972,-2.7971,-2.7971,-2.7967,-2.7958,-2.7936,-2.7933,-2.7938,-2.7944,-2.795,-2.7945,-2.7857,-2.7931,-2.793,-2.7929,-2.7929,-2.7929,-2.807,-2.8079,-2.8067,-2.8068,-2.8061,-2.8057,-2.8063,-2.8049,-2.805,-2.8047,-2.8032,-2.8037,-2.8026,-2.8018,-2.8012,-2.8015,-2.8001,-2.8008,-2.801,-2.8012,-2.8015,-2.7951,-2.8015,-2.8014,-2.8014,-2.8014,-2.8014,0,-2.8139,-2.8129,-2.8131,-2.8124,-2.8125,-2.8105,-2.8097,-2.81,-2.8104,-2.8096,-2.8096,-2.8098,-2.8099,-2.8082,-2.808,-2.8086,-2.8075,-2.8086,-2.8084,-2.8083,-2.8029,-2.8024,-2.8094,-2.8094,-2.8094,-2.8094,-2.8094,-2.8094,-2.8175,-2.8188,-2.8176,-2.8185,-2.8176,-2.818,-2.8178,-2.8173,-2.8167,-2.8171,-2.8171,-2.816,-2.8148,-2.8145,-2.8145,-2.814,-2.814,-2.8154,-2.8145,-2.8095,-2.8087,-2.8079,-2.8074,-2.8154,-2.8154,-2.8198,-2.8199,-2.8199]}]]